When you browse on this site, cookies collect data to enhance your experience and personalize the content and advertising you see.
Visit our Privacy Policy to learn more. By continuing to use the site, you agree to this use of cookies and data.
EN

Hourly Weather Sofia

Today, 15 July, Wednesday

Time Temperature Precipitation Wind Pressure Humidity
00:00 +16°C° 0 mm 1 mps 710 mmHg 78%
01:00 +15°C° 0 mm 1 mps 710 mmHg 79%
02:00 +15°C° 0 mm 1 mps 710 mmHg 82%
03:00 +14°C° 0 mm 1 mps 710 mmHg 84%
04:00 +14°C° 0 mm 1 mps 710 mmHg 85%
05:00 +13°C° 0 mm 1 mps 710 mmHg 87%
06:00 +15°C° 0 mm 1 mps 710 mmHg 81%
07:00 +18°C° 0 mm 1 mps 711 mmHg 75%
08:00 +20°C° 0 mm 1 mps 711 mmHg 69%
09:00 +22°C° 0 mm 1 mps 711 mmHg 64%
10:00 +23°C° 0 mm 2 mps 711 mmHg 60%
11:00 +25°C° 0 mm 2 mps 711 mmHg 56%
12:00 +26°C° 0.3 mm 2 mps 711 mmHg 55%
13:00 +26°C° 0.3 mm 2 mps 711 mmHg 54%
14:00 +27°C° 0.3 mm 2 mps 710 mmHg 53%
15:00 +26°C° 0.6 mm 2 mps 710 mmHg 57%
16:00 +25°C° 0.6 mm 2 mps 710 mmHg 62%
17:00 +24°C° 0.6 mm 1 mps 709 mmHg 66%
18:00 +23°C° 0.4 mm 1 mps 709 mmHg 73%
19:00 +21°C° 0.4 mm 1 mps 709 mmHg 80%
20:00 +20°C° 0.4 mm 1 mps 709 mmHg 87%
21:00 +19°C° 0.1 mm 1 mps 709 mmHg 86%
22:00 +19°C° 0.1 mm 1 mps 709 mmHg 86%
23:00 +19°C° 0.1 mm 1 mps 709 mmHg 86%

Tomorrow, 16 July, Thursday

Time Temperature Precipitation Wind Pressure Humidity
00:00 +18°C° 0 mm 1 mps 709 mmHg 86%
01:00 +18°C° 0 mm 1 mps 709 mmHg 86%
02:00 +18°C° 0 mm 1 mps 709 mmHg 85%
03:00 +18°C° 0.1 mm 1 mps 709 mmHg 86%
04:00 +16°C° 0.1 mm 1 mps 709 mmHg 87%
05:00 +16°C° 0.1 mm 1 mps 708 mmHg 87%
06:00 +18°C° 0.2 mm 1 mps 709 mmHg 85%
07:00 +19°C° 0.2 mm 1 mps 709 mmHg 83%
08:00 +20°C° 0.2 mm 1 mps 709 mmHg 81%
09:00 +21°C° 0.8 mm 1 mps 709 mmHg 75%
10:00 +23°C° 0.8 mm 1 mps 709 mmHg 70%
11:00 +24°C° 0.8 mm 1 mps 710 mmHg 64%
12:00 +25°C° 0.8 mm 1 mps 709 mmHg 62%
13:00 +25°C° 0.8 mm 1 mps 709 mmHg 60%
14:00 +26°C° 0.8 mm 2 mps 709 mmHg 58%
15:00 +25°C° 0.5 mm 2 mps 709 mmHg 59%
16:00 +25°C° 0.5 mm 2 mps 708 mmHg 60%
17:00 +25°C° 0.5 mm 2 mps 708 mmHg 61%
18:00 +23°C° 0.3 mm 2 mps 708 mmHg 68%
19:00 +21°C° 0.3 mm 1 mps 708 mmHg 75%
20:00 +19°C° 0.3 mm 1 mps 708 mmHg 82%
21:00 +19°C° 0 mm 1 mps 708 mmHg 83%
22:00 +18°C° 0 mm 1 mps 708 mmHg 84%
23:00 +15°C° 0 mm 0 mps 709 mmHg 85%

Day after tomorrow, 17 July, Friday

Time Temperature Precipitation Wind Pressure Humidity
00:00 +15°C° 0 mm 0 mps 709 mmHg 85%
01:00 +15°C° 0 mm 0 mps 708 mmHg 86%
02:00 +14°C° 0 mm 0 mps 708 mmHg 86%
03:00 +14°C° 0 mm 0 mps 708 mmHg 87%
04:00 +14°C° 0 mm 0 mps 708 mmHg 87%
05:00 +14°C° 0 mm 0 mps 708 mmHg 88%
06:00 +15°C° 0 mm 0 mps 708 mmHg 84%
07:00 +17°C° 0 mm 0 mps 709 mmHg 80%
08:00 +19°C° 0 mm 0 mps 709 mmHg 76%
09:00 +21°C° 0 mm 0 mps 709 mmHg 68%
10:00 +23°C° 0 mm 0 mps 709 mmHg 60%
11:00 +27°C° 0 mm 1 mps 709 mmHg 52%
12:00 +27°C° 0.1 mm 1 mps 709 mmHg 50%
13:00 +28°C° 0.1 mm 1 mps 708 mmHg 49%
14:00 +28°C° 0.1 mm 1 mps 708 mmHg 47%
15:00 +28°C° 0.2 mm 1 mps 708 mmHg 49%
16:00 +27°C° 0.2 mm 1 mps 707 mmHg 51%
17:00 +27°C° 0.2 mm 1 mps 707 mmHg 53%
18:00 +25°C° 0.1 mm 1 mps 707 mmHg 60%
19:00 +23°C° 0.1 mm 1 mps 707 mmHg 67%
20:00 +21°C° 0.1 mm 1 mps 707 mmHg 74%
21:00 +21°C° 0 mm 1 mps 707 mmHg 76%
22:00 +20°C° 0 mm 1 mps 707 mmHg 77%
23:00 +19°C° 0 mm 1 mps 708 mmHg 79%

18 July, Saturday

Time Temperature Precipitation Wind Pressure Humidity
00:00 +19°C° 0 mm 1 mps 708 mmHg 81%
01:00 +18°C° 0 mm 1 mps 708 mmHg 84%
02:00 +18°C° 0 mm 1 mps 708 mmHg 86%
03:00 +16°C° 0.1 mm 1 mps 708 mmHg 87%
04:00 +16°C° 0.1 mm 1 mps 708 mmHg 87%
05:00 +16°C° 0.1 mm 1 mps 708 mmHg 88%
06:00 +18°C° 0.1 mm 1 mps 708 mmHg 84%
07:00 +19°C° 0.1 mm 1 mps 708 mmHg 79%
08:00 +21°C° 0.1 mm 1 mps 709 mmHg 75%
09:00 +22°C° 0.1 mm 1 mps 709 mmHg 71%
10:00 +23°C° 0.1 mm 1 mps 709 mmHg 67%
11:00 +24°C° 0.1 mm 2 mps 709 mmHg 64%
12:00 +24°C° 0.6 mm 2 mps 709 mmHg 66%
13:00 +24°C° 0.6 mm 2 mps 709 mmHg 68%
14:00 +24°C° 0.6 mm 3 mps 708 mmHg 70%
15:00 +24°C° 1 mm 3 mps 708 mmHg 74%
16:00 +23°C° 1 mm 2 mps 708 mmHg 78%
17:00 +21°C° 1 mm 2 mps 708 mmHg 82%
18:00 +20°C° 2.2 mm 2 mps 708 mmHg 86%
19:00 +20°C° 2.2 mm 1 mps 708 mmHg 91%
20:00 +19°C° 2.2 mm 1 mps 708 mmHg 95%
21:00 +19°C° 1.6 mm 1 mps 708 mmHg 95%
22:00 +17°C° 1.6 mm 0 mps 709 mmHg 96%
23:00 +17°C° 1.6 mm 0 mps 709 mmHg 96%

19 July, Sunday

Time Temperature Precipitation Wind Pressure Humidity
00:00 +16°C° 0.5 mm 0 mps 709 mmHg 96%
01:00 +16°C° 0.5 mm 0 mps 709 mmHg 96%
02:00 +18°C° 0.5 mm 1 mps 709 mmHg 96%
03:00 +18°C° 0.1 mm 1 mps 709 mmHg 96%
04:00 +18°C° 0.1 mm 1 mps 709 mmHg 95%
05:00 +18°C° 0.1 mm 1 mps 709 mmHg 95%
06:00 +18°C° 0 mm 1 mps 709 mmHg 94%
07:00 +19°C° 0 mm 1 mps 709 mmHg 92%
08:00 +19°C° 0 mm 1 mps 709 mmHg 90%
09:00 +20°C° 0.1 mm 1 mps 709 mmHg 83%
10:00 +22°C° 0.1 mm 1 mps 710 mmHg 76%
11:00 +23°C° 0.1 mm 1 mps 710 mmHg 69%
12:00 +24°C° 0.1 mm 2 mps 710 mmHg 67%
13:00 +25°C° 0.1 mm 2 mps 709 mmHg 64%
14:00 +25°C° 0.1 mm 2 mps 709 mmHg 61%
15:00 +25°C° 0.1 mm 2 mps 709 mmHg 61%
16:00 +25°C° 0.1 mm 2 mps 709 mmHg 62%
17:00 +25°C° 0.1 mm 2 mps 708 mmHg 62%
18:00 +23°C° 0.2 mm 2 mps 708 mmHg 70%
19:00 +21°C° 0.2 mm 2 mps 708 mmHg 78%
20:00 +20°C° 0.2 mm 1 mps 708 mmHg 85%
21:00 +19°C° 0 mm 1 mps 708 mmHg 86%
22:00 +18°C° 0 mm 1 mps 709 mmHg 87%
23:00 +15°C° 0 mm 0 mps 709 mmHg 88%

20 July, Monday

Time Temperature Precipitation Wind Pressure Humidity
00:00 +16°C° 0 mm 1 mps 709 mmHg 89%
01:00 +16°C° 0 mm 1 mps 709 mmHg 89%
02:00 +15°C° 0 mm 1 mps 709 mmHg 90%
03:00 +15°C° 0 mm 1 mps 709 mmHg 90%
04:00 +15°C° 0 mm 1 mps 709 mmHg 91%
05:00 +14°C° 0 mm 1 mps 708 mmHg 91%
06:00 +16°C° 0 mm 2 mps 709 mmHg 86%
07:00 +17°C° 0 mm 2 mps 709 mmHg 81%
08:00 +18°C° 0 mm 2 mps 709 mmHg 75%
09:00 +20°C° 0 mm 3 mps 709 mmHg 69%
10:00 +21°C° 0 mm 3 mps 710 mmHg 62%
11:00 +24°C° 0 mm 3 mps 710 mmHg 55%
12:00 +23°C° 0 mm 4 mps 709 mmHg 54%
13:00 +25°C° 0 mm 4 mps 709 mmHg 54%
14:00 +25°C° 0 mm 4 mps 709 mmHg 53%
15:00 +25°C° 0 mm 4 mps 709 mmHg 55%
16:00 +25°C° 0 mm 4 mps 709 mmHg 57%
17:00 +25°C° 0 mm 4 mps 709 mmHg 59%
18:00 +22°C° 0 mm 3 mps 709 mmHg 66%
19:00 +20°C° 0 mm 2 mps 709 mmHg 74%
20:00 +18°C° 0 mm 2 mps 709 mmHg 82%
21:00 +19°C° 0 mm 1 mps 709 mmHg 83%
22:00 +18°C° 0 mm 1 mps 709 mmHg 85%
23:00 +18°C° 0 mm 1 mps 710 mmHg 86%
Show more